[[{"header":{"parameterUnit":"m.s-1","parameterCategory":1,"la1":30.2991,"la2":30.254,"lo1":-89.0895,"lo2":-89.0444,"dy":0.0017,"dx":0.0017,"nx":28,"ny":28,"refTime":"2025-08-12T21:00:00:Z","depth":0,"parameterNumber":2,"parameterNumberName":"U-component_of_WINDS"},"data":[0,0,0,0,0,0,0,0,0,0,0,0,0,0,0,0,0,0,0,0,0,0,0,0,0,0,0,0,0,0,0,0,0,0,0,0,0,0,0,0,0,0,0,0,0,0,0,0,0,0,0,0,0,0,0,0,0,0,-5.0587,-5.0586,0,-5.0489,-5.0488,-5.0487,-5.0339,-5.0336,-5.0334,-5.0331,-5.0231,-5.0231,-5.0231,0,0,0,0,0,0,0,0,0,0,0,0,0,-5.0645,-5.0645,-5.0587,-5.0586,-5.0584,-5.0489,-5.0488,-5.0486,-5.0339,-5.0336,-5.0333,-5.033,-5.0231,-5.0231,-5.0231,0,0,0,0,0,0,0,0,0,0,0,0,0,-5.0591,-5.0645,-5.0587,-5.05,-5.0491,-5.0489,-5.0488,-5.0486,-5.034,-5.0336,-5.0332,-5.0329,-5.0231,-5.0231,-5.0231,-5.0307,0,0,-5.023,-5.023,0,0,0,0,0,0,0,0,-5.0594,-5.0589,-5.0514,-5.0506,-5.0496,-5.0422,-5.0471,-5.0426,-5.0341,-5.0397,-5.0331,-5.0327,-5.0298,-5.0292,-5.0282,-5.0303,-5.0298,-5.023,-5.023,-5.0229,-5.0229,0,0,0,0,0,0,0,-5.0598,-5.0592,-5.0548,-5.0513,-5.0502,-5.0465,-5.0453,-5.0462,-5.0371,-5.0392,-5.0381,-5.0372,-5.0292,-5.0283,-5.0279,-5.0297,-5.023,-5.0229,-5.0229,-5.0229,-5.0371,-5.0375,0,0,0,0,0,0,-5.0615,-5.0597,-5.0551,-5.0545,-5.0536,-5.0467,-5.0453,-5.045,-5.037,-5.0354,-5.0375,-5.0365,-5.0285,-5.0279,-5.0275,-5.0356,-5.0229,-5.0229,-5.0229,-5.0367,-5.0372,-5.0376,0,0,0,0,0,0,-5.0617,-5.0612,-5.0555,-5.0568,-5.0558,-5.047,-5.0467,-5.045,-5.044,-5.0357,-5.034,-5.0382,-5.0282,-5.0275,-5.0299,-5.035,-5.0229,-5.0229,-5.0362,-5.0368,-5.0374,-5.0521,0,0,0,0,0,0,-5.0619,-5.0614,-5.0643,-5.057,-5.0558,-5.0583,-5.047,-5.0451,-5.044,-5.0426,-5.036,-5.0345,-5.0278,-5.0301,-5.0299,-5.0348,-5.0228,-5.0357,-5.0365,-5.0372,-5.0512,-5.0532,-5.0549,0,0,0,0,0,-5.0622,-5.0689,-5.0645,-5.064,-5.0592,-5.0586,-5.0579,-5.0501,-5.0445,-5.0472,-5.0418,-5.0347,-5.0346,-5.0304,-5.0301,-5.0351,-5.0354,-5.0363,-5.0371,-5.0503,-5.0528,-5.0548,0,0,0,0,0,0,-5.0771,-5.0678,-5.0628,-5.0673,-5.0639,-5.0561,-5.0593,-5.053,-5.0511,-5.0498,-5.0402,-5.0389,-5.0424,-5.039,-5.0346,-5.0419,-5.0338,-5.0347,-5.044,-5.0462,-5.0481,-5.0487,-5.0228,0,0,0,0,0,-5.0809,-5.0813,-5.0731,-5.0779,-5.0764,-5.0682,-5.0677,-5.062,-5.058,-5.0564,-5.0512,-5.0476,-5.0466,-5.0463,-5.045,-5.0506,-5.0488,-5.0538,-5.0557,-5.0573,-5.0581,-5.0604,-5.0625,-5.0405,-5.0405,-5.0405,0,0,-5.0888,-5.0838,-5.0846,-5.0808,-5.0774,-5.0778,-5.0671,-5.0681,-5.0683,-5.0566,-5.0584,-5.0545,-5.0498,-5.0538,-5.0553,-5.051,-5.0638,-5.0584,-5.0597,-5.0597,-5.0616,-5.0637,-5.0655,-5.0411,-5.041,-5.0409,0,0,-5.1033,-5.0997,-5.1031,-5.0999,-5.0949,-5.0894,-5.0903,-5.0834,-5.0803,-5.0821,-5.0732,-5.0732,-5.072,-5.0688,-5.0671,-5.0803,-5.0735,-5.0802,-5.0899,-5.0923,-5.094,-5.0955,-5.0999,-5.1016,-5.0811,-5.0811,-5.0811,0,-5.1138,-5.1141,-5.1057,-5.1072,-5.1057,-5.095,-5.0984,-5.0957,-5.0906,-5.0897,-5.085,-5.083,-5.0791,-5.082,-5.0852,-5.0843,-5.0847,-5.0808,-5.0944,-5.0958,-5.0971,-5.1012,-5.1029,-5.0819,-5.0818,-5.0817,-5.0817,0,-5.1271,-5.1275,-5.1309,-5.126,-5.1249,-5.1274,-5.1192,-5.1191,-5.1134,-5.1084,-5.1101,-5.1051,-5.1024,-5.1027,-5.0973,-5.1048,-5.1023,-5.0962,-5.0879,-5.1001,-5.1038,-5.1053,-5.0831,-5.0828,-5.0825,-5.0823,0,0,-5.1507,-5.1411,-5.1425,-5.1401,-5.1337,-5.1338,-5.1357,-5.133,-5.133,-5.1298,-5.1309,-5.13,-5.1242,-5.1222,-5.1163,-5.1185,-5.1288,-5.112,-5.1117,-5.1151,-5.1364,-5.1408,-5.1428,-5.1243,-5.1246,-5.1248,-5.1367,0,-5.1638,-5.1664,-5.1588,-5.1634,-5.1635,-5.1533,-5.1548,-5.151,-5.1464,-5.1457,-5.1404,-5.1398,-5.1324,-5.1311,-5.1327,-5.1272,-5.1329,-5.1263,-5.1251,-5.1252,-5.1264,-5.1448,-5.1495,-5.161,-5.1381,-5.1383,-5.1385,0,-5.1794,-5.1769,-5.1815,-5.1746,-5.1743,-5.1759,-5.1727,-5.1723,-5.1677,-5.164,-5.1618,-5.1549,-5.156,-5.1482,-5.1495,-5.1451,-5.1441,-5.1414,-5.1416,-5.141,-5.1325,-5.1444,-5.1644,-5.1661,-5.1407,-5.1405,-5.1404,0,-5.1959,-5.1937,-5.196,-5.1943,-5.1864,-5.1877,-5.1845,-5.1795,-5.1783,-5.1755,-5.1746,-5.172,-5.1706,-5.1686,-5.1611,-5.1562,-5.1632,-5.1548,-5.16,-5.1602,-5.1618,-5.1618,-5.1817,-5.1616,-5.1616,-5.1616,-5.1615,0,-5.2112,-5.2143,-5.2033,-5.2047,-5.2078,-5.199,-5.2022,-5.198,-5.1936,-5.1938,-5.185,-5.1854,-5.1755,-5.1748,-5.1689,-5.1707,-5.1702,-5.1671,-5.1654,-5.1678,-5.1681,-5.1669,-5.1658,-5.162,-5.1619,-5.1618,-5.1618,0,-5.23,-5.2228,-5.2246,-5.217,-5.2151,-5.2177,-5.2111,-5.212,-5.2067,-5.2071,-5.2067,-5.1983,-5.197,-5.1893,-5.1863,-5.1823,-5.186,-5.1829,-5.1876,-5.1865,-5.192,-5.1915,-5.2116,-5.2137,-5.1926,-5.1928,-5.193,0,-5.2402,-5.2423,-5.2348,-5.2344,-5.2315,-5.231,-5.2297,-5.2211,-5.22,-5.2148,-5.2163,-5.2142,-5.2121,-5.2104,-5.2039,-5.2014,-5.198,-5.2052,-5.1976,-5.1997,-5.1977,-5.1976,-5.1976,-5.2068,-5.2071,-5.2073,-5.2075,0,-5.2588,-5.2551,-5.2536,-5.2508,-5.2495,-5.2469,-5.2438,-5.2439,-5.2343,-5.2336,-5.2321,-5.2305,-5.2272,-5.2251,-5.2215,-5.2179,-5.2111,-5.21,-5.211,-5.2133,-5.2158,-5.2142,-5.1918,-5.2095,-5.2093,-5.2092,-5.2091,-5.209,-5.2734,-5.2747,-5.2696,-5.2681,-5.2649,-5.2621,-5.2624,-5.2571,-5.2558,-5.2525,-5.2474,-5.2466,-5.2416,-5.2359,-5.2329,-5.232,-5.2281,-5.2296,-5.23,-5.2304,-5.2315,-5.2161,-5.2313,-5.2312,-5.2312,-5.2311,-5.2311,0,-5.2913,-5.2875,-5.2863,-5.2821,-5.2809,-5.2746,-5.2708,-5.2701,-5.2695,-5.2655,-5.2635,-5.2616,-5.2595,-5.2529,-5.25,-5.2505,-5.2473,-5.25,-5.2498,-5.249,-5.2353,-5.2346,-5.2527,-5.2527,-5.2527,-5.2527,-5.2527,-5.2527,-5.3005,-5.3022,-5.2979,-5.2979,-5.294,-5.2931,-5.2914,-5.2887,-5.2854,-5.2837,-5.2819,-5.2776,-5.2724,-5.2691,-5.2668,-5.2648,-5.264,-5.2678,-5.2649,-5.2521,-5.25,-5.2481,-5.2473,-5.2678,-5.2678,-5.2786,-5.2787,-5.2788]},{"header":{"parameterUnit":"m.s-1","parameterCategory":1,"la1":30.2991,"la2":30.254,"lo1":-89.0895,"lo2":-89.0444,"dy":0.0017,"dx":0.0017,"nx":28,"ny":28,"refTime":"2025-08-12T21:00:00:Z","depth":0,"parameterNumber":3,"parameterNumberName":"V-component_of_WINDS"},"data":[0,0,0,0,0,0,0,0,0,0,0,0,0,0,0,0,0,0,0,0,0,0,0,0,0,0,0,0,0,0,0,0,0,0,0,0,0,0,0,0,0,0,0,0,0,0,0,0,0,0,0,0,0,0,0,0,0,0,-1.5319,-1.532,0,-1.5437,-1.5439,-1.544,-1.5401,-1.5399,-1.5396,-1.5394,-1.5525,-1.5531,-1.5537,0,0,0,0,0,0,0,0,0,0,0,0,0,-1.5068,-1.5073,-1.5319,-1.532,-1.5322,-1.5437,-1.5439,-1.5441,-1.5402,-1.5399,-1.5395,-1.5392,-1.5523,-1.553,-1.5538,0,0,0,0,0,0,0,0,0,0,0,0,0,-1.5181,-1.5074,-1.5318,-1.5316,-1.5317,-1.5437,-1.5439,-1.5441,-1.5402,-1.5398,-1.5395,-1.5391,-1.5521,-1.553,-1.5539,-1.5671,0,0,-1.5566,-1.557,0,0,0,0,0,0,0,0,-1.5175,-1.519,-1.5315,-1.5316,-1.5317,-1.54,-1.5399,-1.5519,-1.5403,-1.537,-1.5394,-1.5389,-1.5488,-1.5499,-1.553,-1.5677,-1.5683,-1.5566,-1.5572,-1.5576,-1.5578,0,0,0,0,0,0,0,-1.5167,-1.5185,-1.5366,-1.5317,-1.5318,-1.5312,-1.5324,-1.5421,-1.545,-1.5373,-1.537,-1.5384,-1.5488,-1.5522,-1.5533,-1.5685,-1.5566,-1.5574,-1.558,-1.5583,-1.5949,-1.5954,0,0,0,0,0,0,-1.5157,-1.5179,-1.5362,-1.5369,-1.5235,-1.532,-1.5333,-1.5378,-1.5448,-1.5455,-1.5387,-1.5382,-1.5508,-1.5523,-1.5537,-1.5698,-1.5576,-1.5584,-1.5589,-1.5945,-1.595,-1.5955,0,0,0,0,0,0,-1.5152,-1.5174,-1.5357,-1.5273,-1.5296,-1.5328,-1.5379,-1.5382,-1.5416,-1.5459,-1.5465,-1.5416,-1.5506,-1.5525,-1.5638,-1.5702,-1.5588,-1.5596,-1.594,-1.5947,-1.5953,-1.6021,0,0,0,0,0,0,-1.5145,-1.5172,-1.522,-1.5275,-1.5301,-1.5453,-1.5383,-1.5387,-1.543,-1.5424,-1.5488,-1.5495,-1.5504,-1.5625,-1.5647,-1.5713,-1.5603,-1.5934,-1.5943,-1.5951,-1.6013,-1.6029,-1.6043,0,0,0,0,0,-1.5136,-1.5237,-1.5223,-1.5245,-1.5361,-1.5457,-1.5472,-1.5478,-1.5435,-1.5486,-1.5514,-1.5493,-1.5692,-1.5637,-1.5661,-1.5731,-1.593,-1.5941,-1.595,-1.6007,-1.6026,-1.6042,0,0,0,0,0,0,-1.5192,-1.5244,-1.5229,-1.535,-1.5399,-1.545,-1.5513,-1.5498,-1.5563,-1.5555,-1.5562,-1.5577,-1.5694,-1.5724,-1.5661,-1.5864,-1.5805,-1.5821,-1.584,-1.5859,-1.5873,-1.5864,-1.561,0,0,0,0,0,-1.5218,-1.5288,-1.533,-1.5433,-1.5458,-1.5482,-1.5523,-1.5523,-1.5576,-1.5597,-1.5634,-1.5688,-1.5763,-1.5813,-1.5884,-1.6017,-1.6032,-1.6077,-1.6092,-1.6104,-1.6118,-1.6192,-1.6213,-1.5988,-1.5988,-1.5987,0,0,-1.5273,-1.531,-1.5354,-1.5445,-1.5483,-1.5558,-1.5499,-1.5581,-1.5638,-1.5611,-1.5719,-1.5748,-1.581,-1.5934,-1.599,-1.5962,-1.6183,-1.6117,-1.6126,-1.6133,-1.6205,-1.6226,-1.6245,-1.5994,-1.5993,-1.5992,0,0,-1.5412,-1.5446,-1.5536,-1.5575,-1.5632,-1.5647,-1.5669,-1.5722,-1.5739,-1.5847,-1.5829,-1.5898,-1.6027,-1.6072,-1.6111,-1.6268,-1.6252,-1.6292,-1.637,-1.6442,-1.646,-1.6476,-1.6534,-1.6554,-1.6305,-1.6305,-1.6305,0,-1.5475,-1.5584,-1.5585,-1.5668,-1.571,-1.5685,-1.5778,-1.5817,-1.5896,-1.5927,-1.5894,-1.6054,-1.6094,-1.6229,-1.6267,-1.63,-1.6327,-1.6285,-1.6457,-1.6473,-1.6488,-1.6543,-1.6564,-1.631,-1.6309,-1.6309,-1.6308,0,-1.5659,-1.5735,-1.5801,-1.5875,-1.5924,-1.6012,-1.6029,-1.6079,-1.6076,-1.6095,-1.6208,-1.6254,-1.6335,-1.6367,-1.6365,-1.6503,-1.6484,-1.6454,-1.6395,-1.6514,-1.6566,-1.6587,-1.6316,-1.6314,-1.6313,-1.6312,0,0,-1.5837,-1.5909,-1.5933,-1.5967,-1.6029,-1.6089,-1.6178,-1.6253,-1.6297,-1.6353,-1.6429,-1.6539,-1.6511,-1.6556,-1.656,-1.6624,-1.6747,-1.6586,-1.6588,-1.6616,-1.6904,-1.6926,-1.695,-1.6736,-1.674,-1.6743,-1.6899,0,-1.5982,-1.6132,-1.6136,-1.6276,-1.6348,-1.6326,-1.6403,-1.6452,-1.6473,-1.654,-1.6565,-1.6642,-1.6599,-1.6627,-1.6689,-1.6719,-1.6805,-1.6708,-1.681,-1.6814,-1.6796,-1.6977,-1.7001,-1.7146,-1.6919,-1.6922,-1.6925,0,-1.6171,-1.6229,-1.6375,-1.6427,-1.6458,-1.6526,-1.6597,-1.666,-1.6716,-1.6727,-1.6777,-1.6772,-1.6865,-1.6803,-1.6934,-1.6867,-1.691,-1.6931,-1.6937,-1.6948,-1.6877,-1.6994,-1.7192,-1.7214,-1.6957,-1.6954,-1.6952,0,-1.6287,-1.6403,-1.6505,-1.6535,-1.6598,-1.6647,-1.6676,-1.6727,-1.6773,-1.6836,-1.6866,-1.6941,-1.6982,-1.7041,-1.7057,-1.701,-1.7189,-1.7127,-1.7203,-1.7203,-1.7243,-1.724,-1.7451,-1.7269,-1.7268,-1.7268,-1.7267,0,-1.6449,-1.654,-1.6558,-1.6622,-1.6724,-1.6728,-1.683,-1.6857,-1.6903,-1.6973,-1.696,-1.7028,-1.7044,-1.7115,-1.7129,-1.7236,-1.7255,-1.7269,-1.7272,-1.7271,-1.7269,-1.7299,-1.729,-1.7274,-1.7272,-1.7271,-1.727,0,-1.6596,-1.6612,-1.6723,-1.6773,-1.6788,-1.6861,-1.6905,-1.6968,-1.6987,-1.7077,-1.7098,-1.713,-1.7214,-1.7235,-1.7336,-1.7345,-1.7472,-1.7465,-1.7453,-1.7453,-1.7528,-1.7521,-1.7766,-1.78,-1.7594,-1.7596,-1.7598,0,-1.6699,-1.6767,-1.6824,-1.6869,-1.6899,-1.6972,-1.7018,-1.7027,-1.7076,-1.7144,-1.72,-1.7281,-1.7346,-1.7481,-1.7516,-1.7594,-1.7589,-1.767,-1.7601,-1.7598,-1.7592,-1.7588,-1.7596,-1.7683,-1.7685,-1.7687,-1.7689,0,-1.6879,-1.6884,-1.6949,-1.7017,-1.7072,-1.7127,-1.718,-1.7218,-1.7235,-1.7291,-1.7374,-1.7425,-1.7527,-1.7609,-1.7687,-1.7721,-1.771,-1.771,-1.7732,-1.7732,-1.7722,-1.773,-1.7489,-1.7704,-1.7703,-1.7702,-1.7701,-1.77,-1.7008,-1.7069,-1.7118,-1.7191,-1.7232,-1.7281,-1.7342,-1.7369,-1.7437,-1.7518,-1.752,-1.7612,-1.7669,-1.7772,-1.781,-1.7884,-1.786,-1.7892,-1.79,-1.7908,-1.7915,-1.7709,-1.7899,-1.7898,-1.7898,-1.7898,-1.7897,0,-1.7189,-1.7219,-1.7287,-1.736,-1.7419,-1.7398,-1.7456,-1.7508,-1.7587,-1.7639,-1.7703,-1.78,-1.788,-1.7921,-1.8001,-1.8052,-1.8049,-1.8073,-1.807,-1.8079,-1.7931,-1.7905,-1.8075,-1.8075,-1.8075,-1.8075,-1.8075,-1.8075,-1.729,-1.7391,-1.7402,-1.7525,-1.7556,-1.7642,-1.7678,-1.7725,-1.7766,-1.7874,-1.7939,-1.7963,-1.8012,-1.8095,-1.8169,-1.8179,-1.821,-1.8238,-1.8245,-1.8107,-1.8089,-1.8072,-1.8047,-1.8244,-1.8244,-1.8387,-1.8388,-1.8389]}]]